IRIDIUM 33 DEB, 35051

Orbit data source: Space-Track

IRIDIUM 33 DEB, 35051 is space debris in LEO originally from a launch on Sun, 14 Sep 1997 UTC launched from the Tyuratam Missile And Space Complex (TTMTR). The debris from Iridium 33, an American commercial communications satellite, has been tracked extensively since its accidental collision with the defunct Russian satellite Cosmos 2251 in 2009. This event, occurring at high speed in low Earth orbit (LEO), generated thousands of pieces of space debris, significantly increasing the risk of further collisions. The Iridium 33 debris cloud has impacted space traffic management and orbital debris mitigation strategies, making it a subject of ongoing study in space situational awareness.

Loading next visibility...
Identifier
35051, 1997-051NX
Orbit
LEO
Country
Flag of USUS
Related business
Manufacturer
Unknown
Mission
Spacecraft
Bus & Motor
Unknown
Mass
Unknown
Launch date (UTC)
1997-09-14 (28 years ago)
Launch vehicle
Unknown
Launch site
Tyuratam Missile And Space Complex (TTMTR)
Object type
Payload
Rocket body
Debris
Shape & HBR
Unknown shape, 0.1 m
Radar Cross Section
Small (<0.1 m²)

Expand to show TLE details & history
Last TLE update: 4 days ago

TLE from 4 days ago
0 IRIDIUM 33 DEB
1 35051U 97051NX  26062.19624420  .00002674  00000-0  71394-3 0  9996
2 35051  86.3285 333.7982 0007886 165.3511 194.7923 14.48072669881609
Epoch: 2026-03-03T04:42Z
TLE epoch observation values (Epoch: 2026-03-03T04:42:35.498Z)
Latitude
Longitude
102.17152°
Altitude
740.443 km
Speed
7.482 km/s
True Right ascension
22h 15m 11s
True Declination
0° 00' 00"
Sunlit
Object was in daylight at epoch
Visualization orbit readout
Latitude
Unknown
Longitude
Unknown
Altitude
Unknown
Speed
Unknown
Apparent Right ascension
Unknown
Apparent Declination
Unknown
Sunlit
N/A
Visualization observer readout
Local Sidereal Time
07:35:29
Azimuth
Unknown
Elevation
Unknown
Doppler factor
Unknown
Orbital elements
Apogee altitude
734.501 km
Perigee altitude
723.292 km
Semi-major axis
7,107.034 km
Eccentricity
0.00079
Inclination
86.3285°
RAAN
333.7982°
Arg. of periapsis
165.3511°
True anomaly
194.76925°
Mean anomaly
194.7923°
Eccentric anomaly
194.78077°
Mean motion
3.62252 °/min
Orbital period
99.38 mins
BSTAR
0.00071394
Loading maneuver chart data...
Computing Atmospheric mass density...
Loading historical data...
Loading historical data...
Loading historical data...
Loading historical data...
Loading historical data...
Loading historical data...
Loading historical data...

Documentation

Showing up to 5 results
|